Weather History for KFNL - April, 2013

Change the Weather History Date:

Sunday, April 28, 2013

  Actual Average Record
Temperature  
Mean Temperature 59 °F -  
Max Temperature 77 °F 61 °F 77 °F (2004)
Min Temperature 41 °F 36 °F 28 °F (2005)
Degree Days  
Heating Degree Days 6    
Growing Degree Days 9 (Base 50)    
Moisture  
Dew Point 30 °F    
Average Humidity 37    
Maximum Humidity 76    
Minimum Humidity 18    
Precipitation  
Precipitation 0.00 in - - ()
Sea Level Pressure  
Sea Level Pressure 29.98 in    
Wind  
Wind Speed 4 mph (South)    
Max Wind Speed 12 mph    
Max Gust Speed 21 mph    
Visibility 10 miles    
Events      
Averages and records for this station are not official NWS values.
T = Trace of Precipitation, MM = Missing Value Source: NWS Daily Summary

Daily Weather History Graph

Daily Weather History Graph

Search for Another Location

Airport or City:

Trip Planner

Search our weather history database for the weather conditions in past years. The results will help you decide how hot, cold, wet, or windy it might be!

Date:

Astronomy

Apr. 28, 2013 Rise Set
Actual Time 6:02 AM MDT 7:52 PM MDT
Civil Twilight 5:33 AM MDT 8:22 PM MDT
Nautical Twilight 4:57 AM MDT 8:58 PM MDT
Astronomical Twilight 4:19 AM MDT 9:36 PM MDT
Moon 11:26 PM MDT (4/28) 8:21 AM MDT (4/28)
Length of Visible Light 14h 48m
Length of Day
13h 50m
Waning Gibbous, 88% of the Moon is Illuminated
Apr 28
Waning Gibbous
May 2
Last Quarter
May 9
New
May 17
First Quarter
May 24
Full

Hourly Weather History & Observations

Time (MDT) Temp. Windchill Dew Point Humidity Pressure Visibility Wind Dir Wind Speed Gust Speed Precip Events Conditions
12:15 AM 55.4 °F - 26.6 °F 33% 30.04 in 10.0 mi South 4.6 mph - N/A   Clear
12:35 AM 57.2 °F - 24.8 °F 29% 30.03 in 10.0 mi SSW 4.6 mph - N/A   Clear
12:55 AM 55.4 °F - 23.0 °F 29% 30.03 in 10.0 mi Calm Calm - N/A   Clear
1:15 AM 57.2 °F - 23.0 °F 27% 30.03 in 10.0 mi Calm Calm - N/A   Clear
1:35 AM 53.6 °F - 24.8 °F 33% 30.02 in 10.0 mi North 5.8 mph - N/A   Clear
1:55 AM 48.2 °F - 26.6 °F 43% 30.02 in 10.0 mi NNE 5.8 mph - N/A   Clear
2:15 AM 50.0 °F - 26.6 °F 40% 30.01 in 10.0 mi North 5.8 mph - N/A   Clear
2:55 AM 48.2 °F - 26.6 °F 43% 30.01 in 10.0 mi South 3.5 mph - N/A   Clear
3:15 AM 46.4 °F - 28.4 °F 50% 30.01 in 10.0 mi Calm Calm - N/A   Clear
3:35 AM 44.6 °F - 26.6 °F 49% 30.01 in 10.0 mi Calm Calm - N/A   Clear
3:55 AM 44.6 °F - 28.4 °F 53% 30.01 in 10.0 mi Calm Calm - N/A   Clear
4:15 AM 46.4 °F - 28.4 °F 50% 30.00 in 10.0 mi Calm Calm - N/A   Clear
4:35 AM 44.6 °F 40.7 °F 28.4 °F 53% 30.00 in 10.0 mi NNE 6.9 mph - N/A   Clear
4:55 AM 42.8 °F 40.1 °F 28.4 °F 57% 30.01 in 10.0 mi SSW 4.6 mph - N/A   Clear
5:35 AM 41.0 °F - 33.8 °F 76% 30.01 in 10.0 mi Calm Calm - N/A   Clear
5:55 AM 44.6 °F - 30.2 °F 57% 30.00 in 10.0 mi Calm Calm - N/A   Clear
6:15 AM 41.0 °F - 30.2 °F 65% 30.00 in 10.0 mi Calm Calm - N/A   Clear
6:35 AM 42.8 °F - 33.8 °F 70% 30.00 in 10.0 mi Calm Calm - N/A   Clear
7:15 AM 48.2 °F - 35.6 °F 62% 30.00 in 10.0 mi SW 3.5 mph - N/A   Clear
7:35 AM 51.8 °F - 35.6 °F 54% 30.00 in 10.0 mi Calm Calm - N/A   Clear
7:55 AM 55.4 °F - 37.4 °F 51% 30.00 in 10.0 mi Calm Calm - N/A   Clear
8:15 AM 57.2 °F - 32.0 °F 38% 29.99 in 10.0 mi SSW 4.6 mph - N/A   Clear
8:35 AM 59.0 °F - 32.0 °F 36% 29.99 in 10.0 mi Calm Calm - N/A   Clear
8:55 AM 60.8 °F - 35.6 °F 39% 29.99 in 10.0 mi SE 3.5 mph - N/A   Clear
9:15 AM 62.6 °F - 33.8 °F 34% 29.99 in 10.0 mi SE 5.8 mph - N/A   Clear
9:35 AM 64.4 °F - 33.8 °F 32% 29.98 in 10.0 mi SE 6.9 mph - N/A   Clear
9:55 AM 66.2 °F - 33.8 °F 30% 29.98 in 10.0 mi ESE 6.9 mph - N/A   Clear
10:15 AM 68.0 °F - 28.4 °F 23% 29.98 in 10.0 mi ESE 6.9 mph - N/A   Clear
10:35 AM 69.8 °F - 35.6 °F 28% 29.97 in 10.0 mi ENE 11.5 mph - N/A   Clear
10:55 AM 71.6 °F - 33.8 °F 25% 29.98 in 10.0 mi East 6.9 mph - N/A   Clear
11:15 AM 73.4 °F - 30.2 °F 20% 29.97 in 10.0 mi East 4.6 mph - N/A   Clear
11:35 AM 73.4 °F - 30.2 °F 20% 29.97 in 10.0 mi WSW 4.6 mph - N/A   Clear
11:55 AM 71.6 °F - 30.2 °F 22% 29.96 in 10.0 mi SSW 6.9 mph - N/A   Clear
12:15 PM 73.4 °F - 30.2 °F 20% 29.95 in 10.0 mi Calm Calm - N/A   Clear
12:35 PM 75.2 °F - 30.2 °F 19% 29.94 in 10.0 mi West 11.5 mph 18.4 mph N/A   Clear
12:55 PM 75.2 °F - 28.4 °F 18% 29.94 in 8.0 mi WSW 5.8 mph - N/A   Clear
1:15 PM 75.2 °F - 28.4 °F 18% 29.94 in 10.0 mi NNW 6.9 mph - N/A   Clear
1:35 PM 75.2 °F - 28.4 °F 18% 29.93 in 10.0 mi WNW 6.9 mph - N/A   Clear
1:55 PM 77.0 °F - 30.2 °F 18% 29.92 in 10.0 mi West 9.2 mph 20.7 mph N/A   Clear
2:15 PM 75.2 °F - 28.4 °F 18% 29.92 in 10.0 mi WNW 5.8 mph - N/A   Clear
2:35 PM 77.0 °F - 30.2 °F 18% 29.91 in 10.0 mi South 8.1 mph - N/A   Clear
2:55 PM 77.0 °F - 30.2 °F 18% 29.90 in 10.0 mi SSW 6.9 mph - N/A   Scattered Clouds
11:35 PM 60.8 °F - 35.6 °F 39% 29.94 in 10.0 mi North 8.1 mph - N/A   Overcast